WAT187 YPPH-WIII

Flight info

Callsign WAT187
Flight time 5h 36m
Altitude 37000
Route PH Y15 ESDEG/N0471F340 Q587 PADRY/N0470F360 Q587 IGLUT T58 SAPDA A585 HLM DCT DKI
Aircraft CL60/M-SADE3FGHIJ3J4J7P2RWXY/HB1D1

Departure

Time 2026-04-27 00:24
Airport Perth International Airport (YPPH)

Arrival

Time 2026-04-27 06:00
Airport Soekarno-Hatta International Airport (WIII)
Time Latitude Longitude Altitude Speed Heading
2026-04-27 00:11 -31.94476 115.96819 74 ft 0 kts 13°
2026-04-27 00:17 -31.94489 115.96815 74 ft 2 kts 13°
2026-04-27 00:17 -31.94504 115.96812 74 ft 0 kts 12°
2026-04-27 00:18 -31.94513 115.96811 74 ft 2 kts 358°
2026-04-27 00:18 -31.94527 115.96815 74 ft 2 kts 332°
2026-04-27 00:18 -31.94538 115.96826 74 ft 2 kts 307°
2026-04-27 00:18 -31.94544 115.96841 74 ft 0 kts 284°
2026-04-27 00:19 -31.94545 115.96843 74 ft 0 kts 283°
2026-04-27 00:22 -31.94545 115.96841 74 ft 1 kts 283°
2026-04-27 00:22 -31.94537 115.96802 74 ft 8 kts 283°
2026-04-27 00:22 -31.94515 115.96699 74 ft 16 kts 284°
2026-04-27 00:22 -31.94481 115.96540 74 ft 22 kts 284°
2026-04-27 00:23 -31.94436 115.96411 74 ft 12 kts 355°
2026-04-27 00:23 -31.94356 115.96412 74 ft 19 kts 10°
2026-04-27 00:23 -31.94083 115.96490 74 ft 78 kts 14°
2026-04-27 00:23 -31.93278 115.96723 77 ft 155 kts 14°
2026-04-27 00:24 -31.92143 115.97028 630 ft 176 kts 15°
2026-04-27 00:24 -31.90931 115.97377 1446 ft 189 kts 17°
2026-04-27 00:24 -31.89557 115.97769 2026 ft 220 kts 12°
2026-04-27 00:24 -31.87952 115.97835 2781 ft 241 kts 359°
2026-04-27 00:25 -31.86273 115.97654 3696 ft 244 kts 356°
2026-04-27 00:25 -31.84603 115.97465 4620 ft 243 kts 355°
2026-04-27 00:25 -31.82950 115.97279 5544 ft 243 kts 354°
2026-04-27 00:25 -31.81262 115.97089 6522 ft 247 kts 354°
2026-04-27 00:26 -31.79568 115.96898 7717 ft 249 kts 353°
2026-04-27 00:26 -31.77870 115.96707 8875 ft 249 kts 353°
2026-04-27 00:26 -31.76155 115.96513 9826 ft 256 kts 352°
2026-04-27 00:26 -31.74367 115.96312 10574 ft 269 kts 351°
2026-04-27 00:27 -31.72378 115.96085 10921 ft 296 kts 351°
2026-04-27 00:27 -31.70277 115.95847 11486 ft 312 kts 353°
2026-04-27 00:27 -31.68103 115.95604 12243 ft 320 kts 352°
2026-04-27 00:27 -31.65828 115.95348 12726 ft 335 kts 351°
2026-04-27 00:28 -31.63502 115.95091 13498 ft 340 kts 351°
2026-04-27 00:28 -31.61143 115.94830 14403 ft 340 kts 351°
2026-04-27 00:28 -31.58805 115.94570 15144 ft 344 kts 351°
2026-04-27 00:28 -31.56423 115.94307 15909 ft 346 kts 350°
2026-04-27 00:29 -31.53997 115.94038 16594 ft 351 kts 351°
2026-04-27 00:29 -31.51573 115.93769 17230 ft 355 kts 351°
2026-04-27 00:29 -31.49100 115.93496 17911 ft 358 kts 350°
2026-04-27 00:29 -31.46612 115.93220 18506 ft 362 kts 351°
2026-04-27 00:30 -31.44091 115.92941 19038 ft 368 kts 351°
2026-04-27 00:30 -31.41506 115.92655 19580 ft 373 kts 351°
2026-04-27 00:30 -31.38925 115.92370 20155 ft 376 kts 351°
2026-04-27 00:30 -31.36296 115.92081 20718 ft 379 kts 351°
2026-04-27 00:31 -31.33669 115.91791 21295 ft 381 kts 351°
2026-04-27 00:31 -31.31036 115.91501 21832 ft 384 kts 351°
2026-04-27 00:31 -31.28352 115.91204 22312 ft 387 kts 351°
2026-04-27 00:31 -31.25662 115.90909 22813 ft 390 kts 351°
2026-04-27 00:32 -31.22985 115.90614 23276 ft 394 kts 352°
2026-04-27 00:32 -31.20233 115.90312 23663 ft 399 kts 351°
2026-04-27 00:32 -31.17453 115.90005 24142 ft 402 kts 351°
2026-04-27 00:32 -31.14671 115.89700 24640 ft 404 kts 351°
2026-04-27 00:33 -31.11845 115.89390 25123 ft 406 kts 351°
2026-04-27 00:33 -31.09060 115.89084 25576 ft 408 kts 351°
2026-04-27 00:33 -31.06239 115.88774 26150 ft 407 kts 351°
2026-04-27 00:33 -31.03437 115.88468 26807 ft 404 kts 351°
2026-04-27 00:34 -31.00636 115.88162 27416 ft 401 kts 351°
2026-04-27 00:34 -30.97876 115.87861 28000 ft 399 kts 351°
2026-04-27 00:34 -30.95125 115.87559 28599 ft 396 kts 351°
2026-04-27 00:34 -30.92404 115.87263 29170 ft 393 kts 351°
2026-04-27 00:35 -30.89662 115.86964 29714 ft 391 kts 351°
2026-04-27 00:35 -30.86975 115.86670 30215 ft 390 kts 351°
2026-04-27 00:35 -30.84265 115.86373 30693 ft 389 kts 351°
2026-04-27 00:35 -30.81577 115.86101 31139 ft 390 kts 354°
2026-04-27 00:36 -30.78854 115.86243 31569 ft 393 kts
2026-04-27 00:36 -30.76134 115.86536 31976 ft 392 kts
2026-04-27 00:36 -30.72528 115.86913 32510 ft 392 kts
2026-04-27 00:36 -30.70712 115.87103 32747 ft 392 kts
2026-04-27 00:37 -30.67108 115.87479 33204 ft 392 kts
2026-04-27 00:37 -30.65301 115.87667 33464 ft 391 kts
2026-04-27 00:37 -30.62581 115.87950 33842 ft 390 kts
2026-04-27 00:37 -30.59864 115.88232 34192 ft 390 kts
2026-04-27 00:38 -30.57171 115.88511 34548 ft 389 kts
2026-04-27 00:38 -30.54476 115.88790 34900 ft 388 kts 360°
2026-04-27 00:38 -30.51811 115.89065 35027 ft 392 kts 360°
2026-04-27 00:38 -30.49044 115.89348 35031 ft 399 kts
2026-04-27 00:39 -30.43447 115.89920 35041 ft 411 kts
2026-04-27 00:39 -30.37658 115.90513 35038 ft 422 kts
2026-04-27 00:40 -30.31768 115.91115 35041 ft 431 kts
2026-04-27 00:40 -30.25711 115.91736 35030 ft 436 kts
2026-04-27 00:41 -30.19652 115.92357 35041 ft 437 kts
2026-04-27 00:41 -30.13602 115.92976 35070 ft 438 kts
2026-04-27 00:42 -30.07551 115.93594 35059 ft 437 kts
2026-04-27 00:42 -30.01471 115.94213 35052 ft 437 kts
2026-04-27 00:43 -29.94422 115.94930 35050 ft 437 kts
2026-04-27 00:43 -29.89349 115.95446 35067 ft 437 kts
2026-04-27 00:44 -29.83267 115.96062 35058 ft 438 kts
2026-04-27 00:44 -29.77196 115.96677 35062 ft 437 kts
2026-04-27 00:45 -29.70152 115.97389 35053 ft 437 kts
2026-04-27 00:45 -29.65064 115.97903 35049 ft 437 kts 360°
2026-04-27 00:46 -29.59036 115.98511 35051 ft 436 kts 360°
2026-04-27 00:46 -29.52970 115.99123 35047 ft 436 kts 360°
2026-04-27 00:47 -29.46939 115.99729 35052 ft 437 kts 359°
2026-04-27 00:47 -29.40878 116.00339 35048 ft 437 kts 360°
2026-04-27 00:48 -29.34797 116.00949 35049 ft 436 kts 359°
2026-04-27 00:48 -29.28775 116.01553 35048 ft 436 kts 359°
2026-04-27 00:49 -29.22712 116.02161 35048 ft 435 kts 359°
2026-04-27 00:49 -29.16753 116.02111 35051 ft 429 kts 351°
2026-04-27 00:50 -29.07800 116.01509 35055 ft 429 kts 351°
2026-04-27 00:51 -29.01842 116.01113 35054 ft 428 kts 351°
2026-04-27 00:51 -28.95896 116.00720 35054 ft 427 kts 351°
2026-04-27 00:52 -28.88962 116.00263 35055 ft 428 kts 351°
2026-04-27 00:52 -28.84018 115.99938 35055 ft 428 kts 351°
2026-04-27 00:53 -28.78070 115.99548 35056 ft 428 kts 351°
2026-04-27 00:53 -28.72124 115.99160 35059 ft 427 kts 351°
2026-04-27 00:54 -28.66170 115.98772 35058 ft 426 kts 351°
2026-04-27 00:54 -28.60294 115.98389 35055 ft 425 kts 351°
2026-04-27 00:55 -28.54371 115.98004 35055 ft 425 kts 351°
2026-04-27 00:55 -28.48482 115.97622 35055 ft 424 kts 351°
2026-04-27 00:56 -28.41612 115.97176 35060 ft 423 kts 350°
2026-04-27 00:56 -28.36716 115.96859 35054 ft 423 kts 350°
2026-04-27 00:57 -28.30847 115.96480 35058 ft 422 kts 350°
2026-04-27 00:57 -28.24997 115.96102 35058 ft 421 kts 350°
2026-04-27 00:58 -28.19136 115.95723 35058 ft 421 kts 350°
2026-04-27 00:58 -28.13278 115.95345 35054 ft 422 kts 350°
2026-04-27 00:59 -28.07419 115.94968 35059 ft 421 kts 350°
2026-04-27 00:59 -28.01562 115.94592 35060 ft 419 kts 349°
2026-04-27 01:00 -27.95747 115.94218 35059 ft 419 kts 350°
2026-04-27 01:00 -27.89922 115.93845 35058 ft 419 kts 350°
2026-04-27 01:01 -27.84092 115.93471 35058 ft 420 kts 350°
2026-04-27 01:01 -27.78290 115.93099 35056 ft 420 kts 350°
2026-04-27 01:02 -27.72434 115.92725 35054 ft 420 kts 349°
2026-04-27 01:02 -27.65649 115.92292 35054 ft 418 kts 350°
2026-04-27 01:03 -27.60813 115.91983 35052 ft 418 kts 349°
2026-04-27 01:03 -27.55004 115.91613 35049 ft 418 kts 349°
2026-04-27 01:04 -27.49173 115.91242 35043 ft 418 kts 349°
2026-04-27 01:04 -27.43398 115.90874 35043 ft 417 kts 350°
2026-04-27 01:05 -27.37569 115.90505 35043 ft 418 kts 349°
2026-04-27 01:05 -27.30790 115.90074 35045 ft 418 kts 349°
2026-04-27 01:06 -27.24985 115.89706 35043 ft 418 kts 349°
2026-04-27 01:06 -27.20165 115.89401 35042 ft 417 kts 349°
2026-04-27 01:07 -27.14384 115.89036 35041 ft 417 kts 349°
2026-04-27 01:07 -27.08564 115.88668 35043 ft 417 kts 349°
2026-04-27 01:08 -27.02765 115.88302 35044 ft 417 kts 349°
2026-04-27 01:08 -26.96962 115.87936 35040 ft 416 kts 349°
2026-04-27 01:09 -26.91189 115.87573 35035 ft 416 kts 349°
2026-04-27 01:09 -26.85405 115.87209 35041 ft 417 kts 349°
2026-04-27 01:10 -26.79583 115.86842 35038 ft 417 kts 349°
2026-04-27 01:10 -26.73806 115.86480 35041 ft 417 kts 349°
2026-04-27 01:11 -26.68012 115.86117 35042 ft 417 kts 349°
2026-04-27 01:11 -26.62186 115.85751 35041 ft 417 kts 349°
2026-04-27 01:12 -26.56424 115.85390 35042 ft 417 kts 349°
2026-04-27 01:12 -26.50597 115.85027 35050 ft 418 kts 349°
2026-04-27 01:12 -26.47723 115.84849 35556 ft 410 kts 349°
2026-04-27 01:13 -26.44950 115.84685 36537 ft 393 kts 348°
2026-04-27 01:13 -26.42273 115.84527 37522 ft 375 kts 347°
2026-04-27 01:13 -26.39702 115.84370 38114 ft 366 kts 347°
2026-04-27 01:13 -26.37188 115.84214 38491 ft 362 kts 346°
2026-04-27 01:14 -26.34690 115.84056 38667 ft 362 kts 346°
2026-04-27 01:14 -26.32140 115.83893 38768 ft 363 kts 346°
2026-04-27 01:14 -26.28792 115.83680 38925 ft 365 kts 346°
2026-04-27 01:14 -26.26244 115.83519 39050 ft 366 kts 346°
2026-04-27 01:15 -26.24554 115.83411 39041 ft 368 kts 346°
2026-04-27 01:15 -26.19388 115.83086 39029 ft 370 kts 346°
2026-04-27 01:16 -26.14271 115.82768 39031 ft 367 kts 346°
2026-04-27 01:16 -26.09177 115.82452 39022 ft 364 kts 346°
2026-04-27 01:17 -26.04119 115.82138 39028 ft 364 kts 346°
2026-04-27 01:17 -25.99068 115.81823 39026 ft 364 kts 346°
2026-04-27 01:18 -25.94000 115.81508 39028 ft 365 kts 346°
2026-04-27 01:18 -25.88059 115.81139 39028 ft 365 kts 346°
2026-04-27 01:19 -25.83842 115.80877 39030 ft 366 kts 346°
2026-04-27 01:19 -25.78722 115.80560 39028 ft 366 kts 346°
2026-04-27 01:20 -25.73632 115.80246 39024 ft 366 kts 346°
2026-04-27 01:20 -25.68547 115.79932 39033 ft 366 kts 346°
2026-04-27 01:21 -25.63485 115.79620 39027 ft 365 kts 346°
2026-04-27 01:21 -25.58414 115.79308 39031 ft 364 kts 345°
2026-04-27 01:22 -25.53326 115.78995 39031 ft 365 kts 346°
2026-04-27 01:22 -25.48266 115.78683 39033 ft 366 kts 346°
2026-04-27 01:23 -25.43170 115.78369 39030 ft 366 kts 345°
2026-04-27 01:23 -25.38061 115.78056 39033 ft 366 kts 345°
2026-04-27 01:24 -25.32965 115.77743 39030 ft 366 kts 346°
2026-04-27 01:24 -25.27885 115.77432 39030 ft 365 kts 346°
2026-04-27 01:25 -25.22801 115.77120 39035 ft 366 kts 345°
2026-04-27 01:25 -25.17736 115.76809 39024 ft 367 kts 346°
2026-04-27 01:26 -25.12620 115.76496 39031 ft 367 kts 345°
2026-04-27 01:26 -25.07528 115.76186 39034 ft 367 kts 346°
2026-04-27 01:27 -25.02421 115.75874 39028 ft 367 kts 346°
2026-04-27 01:27 -24.97313 115.75562 39037 ft 367 kts 346°
2026-04-27 01:28 -24.92202 115.75250 39034 ft 367 kts 346°
2026-04-27 01:28 -24.87085 115.74939 39031 ft 367 kts 346°
2026-04-27 01:29 -24.81989 115.74629 39031 ft 367 kts 346°
2026-04-27 01:29 -24.76866 115.74317 39028 ft 367 kts 346°
2026-04-27 01:30 -24.71777 115.74008 39027 ft 368 kts 346°
2026-04-27 01:30 -24.66619 115.73695 39038 ft 369 kts 346°
2026-04-27 01:31 -24.61480 115.73383 39035 ft 369 kts 346°
2026-04-27 01:31 -24.56377 115.73075 39031 ft 368 kts 346°
2026-04-27 01:32 -24.51252 115.72765 39033 ft 368 kts 346°
2026-04-27 01:32 -24.46115 115.72454 39027 ft 369 kts 345°
2026-04-27 01:33 -24.40981 115.72144 39030 ft 370 kts 346°
2026-04-27 01:33 -24.35833 115.71832 39040 ft 370 kts 346°
2026-04-27 01:34 -24.30690 115.71522 39036 ft 370 kts 346°
2026-04-27 01:34 -24.25532 115.71211 39036 ft 370 kts 346°
2026-04-27 01:35 -24.20377 115.70901 39035 ft 371 kts 346°
2026-04-27 01:35 -24.15202 115.70589 39031 ft 372 kts 346°
2026-04-27 01:36 -24.10034 115.70278 39029 ft 372 kts 346°
2026-04-27 01:36 -24.04843 115.69966 39036 ft 373 kts 346°
2026-04-27 01:37 -23.99660 115.69656 39035 ft 372 kts 346°
2026-04-27 01:37 -23.94485 115.69346 39040 ft 372 kts 346°
2026-04-27 01:38 -23.89303 115.69035 39041 ft 372 kts 346°
2026-04-27 01:38 -23.84137 115.68725 39047 ft 373 kts 346°
2026-04-27 01:39 -23.78947 115.68414 39046 ft 373 kts 346°
2026-04-27 01:39 -23.73743 115.68103 39032 ft 373 kts 346°
2026-04-27 01:40 -23.67704 115.67743 39041 ft 373 kts 347°
2026-04-27 01:40 -23.63380 115.67485 39032 ft 373 kts 346°
2026-04-27 01:41 -23.58166 115.67174 39033 ft 373 kts 347°
2026-04-27 01:41 -23.52990 115.66865 39034 ft 374 kts 347°
2026-04-27 01:42 -23.47786 115.66554 39033 ft 374 kts 346°
2026-04-27 01:42 -23.42590 115.66245 39027 ft 374 kts 347°
2026-04-27 01:43 -23.37390 115.65936 39033 ft 374 kts 347°
2026-04-27 01:43 -23.31313 115.65575 39017 ft 375 kts 347°
2026-04-27 01:44 -23.26940 115.65314 39031 ft 376 kts 347°
2026-04-27 01:44 -23.21703 115.65004 39017 ft 377 kts 347°
2026-04-27 01:45 -23.16465 115.64694 39022 ft 376 kts 347°
2026-04-27 01:45 -23.11249 115.64385 39018 ft 375 kts 347°
2026-04-27 01:46 -23.06027 115.64076 39022 ft 376 kts 347°
2026-04-27 01:46 -22.99926 115.63715 39017 ft 377 kts 347°
2026-04-27 01:47 -22.95551 115.63456 39011 ft 377 kts 347°
2026-04-27 01:47 -22.90306 115.63147 39009 ft 377 kts 347°
2026-04-27 01:48 -22.85057 115.62837 39017 ft 376 kts 347°
2026-04-27 01:48 -22.79832 115.62530 39010 ft 376 kts 347°
2026-04-27 01:49 -22.74609 115.62221 39013 ft 376 kts 348°
2026-04-27 01:49 -22.69367 115.61912 39009 ft 377 kts 348°
2026-04-27 01:50 -22.64096 115.61602 38998 ft 377 kts 348°
2026-04-27 01:50 -22.58879 115.61295 38999 ft 377 kts 348°
2026-04-27 01:51 -22.53640 115.60988 38992 ft 376 kts 348°
2026-04-27 01:51 -22.48398 115.60680 38996 ft 377 kts 348°
2026-04-27 01:52 -22.43117 115.60370 38995 ft 378 kts 348°
2026-04-27 01:52 -22.37862 115.60062 38999 ft 378 kts 348°
2026-04-27 01:53 -22.32621 115.59755 38999 ft 377 kts 348°
2026-04-27 01:53 -22.27385 115.59449 38997 ft 377 kts 348°
2026-04-27 01:54 -22.22139 115.59142 38983 ft 376 kts 348°
2026-04-27 01:54 -22.16878 115.58835 38984 ft 376 kts 348°
2026-04-27 01:55 -22.11650 115.58529 38986 ft 376 kts 348°
2026-04-27 01:55 -22.06430 115.58224 38984 ft 377 kts 349°
2026-04-27 01:56 -21.98535 115.57764 38980 ft 377 kts 349°
2026-04-27 01:56 -21.93472 115.56888 38982 ft 364 kts 335°
2026-04-27 01:57 -21.88899 115.54623 38983 ft 359 kts 327°
2026-04-27 01:57 -21.84446 115.52159 38977 ft 360 kts 327°
2026-04-27 01:58 -21.79981 115.49692 38977 ft 360 kts 327°
2026-04-27 01:58 -21.74759 115.46809 39033 ft 363 kts 327°
2026-04-27 01:59 -21.73274 115.45989 39152 ft 363 kts 327°
2026-04-27 01:59 -21.71030 115.44752 39384 ft 361 kts 327°
2026-04-27 01:59 -21.68055 115.43113 39679 ft 360 kts 327°
2026-04-27 01:59 -21.66561 115.42290 39783 ft 359 kts 327°
2026-04-27 02:00 -21.64346 115.41069 39943 ft 359 kts 327°
2026-04-27 02:00 -21.62101 115.39832 39964 ft 361 kts 327°
2026-04-27 02:00 -21.57614 115.37362 39964 ft 362 kts 327°
2026-04-27 02:01 -21.52399 115.34494 39961 ft 361 kts 327°
2026-04-27 02:01 -21.48651 115.32434 39957 ft 360 kts 327°
2026-04-27 02:02 -21.44211 115.29996 39958 ft 359 kts 327°
2026-04-27 02:02 -21.39760 115.27553 39956 ft 358 kts 327°
2026-04-27 02:03 -21.35308 115.25111 39958 ft 359 kts 327°
2026-04-27 02:03 -21.30857 115.22671 39955 ft 359 kts 327°
2026-04-27 02:04 -21.26404 115.20232 39956 ft 360 kts 327°
2026-04-27 02:04 -21.21939 115.17787 39966 ft 360 kts 327°
2026-04-27 02:05 -21.17475 115.15345 39967 ft 360 kts 327°
2026-04-27 02:05 -21.13001 115.12900 39967 ft 360 kts 327°
2026-04-27 02:06 -21.08534 115.10460 39965 ft 361 kts 327°
2026-04-27 02:06 -21.04068 115.08022 39967 ft 361 kts 327°
2026-04-27 02:07 -20.99592 115.05581 39964 ft 361 kts 327°
2026-04-27 02:07 -20.95109 115.03137 39967 ft 361 kts 327°
2026-04-27 02:08 -20.90630 115.00697 39962 ft 361 kts 327°
2026-04-27 02:08 -20.86152 114.98260 39962 ft 361 kts 327°
2026-04-27 02:09 -20.81669 114.95821 39967 ft 362 kts 327°
2026-04-27 02:09 -20.77164 114.93373 39966 ft 362 kts 328°
2026-04-27 02:10 -20.72684 114.90939 39963 ft 362 kts 327°
2026-04-27 02:10 -20.67451 114.88098 39965 ft 362 kts 328°
2026-04-27 02:11 -20.63689 114.86057 39968 ft 363 kts 327°
2026-04-27 02:11 -20.59200 114.83624 39966 ft 363 kts 328°
2026-04-27 02:12 -20.54689 114.81181 39968 ft 363 kts 328°
2026-04-27 02:12 -20.50183 114.78740 39967 ft 363 kts 328°
2026-04-27 02:13 -20.45644 114.76284 39968 ft 364 kts 328°
2026-04-27 02:13 -20.41149 114.73854 39965 ft 364 kts 328°
2026-04-27 02:14 -20.36636 114.71416 39962 ft 364 kts 328°
2026-04-27 02:14 -20.32094 114.68963 39956 ft 364 kts 328°
2026-04-27 02:15 -20.27573 114.66524 39954 ft 364 kts 328°
2026-04-27 02:15 -20.23057 114.64088 39952 ft 364 kts 328°
2026-04-27 02:16 -20.18544 114.61656 39952 ft 364 kts 328°
2026-04-27 02:16 -20.13997 114.59208 39952 ft 364 kts 328°
2026-04-27 02:17 -20.09479 114.56776 39947 ft 365 kts 328°
2026-04-27 02:17 -20.04934 114.54332 39946 ft 365 kts 328°
2026-04-27 02:18 -20.00400 114.51895 39946 ft 365 kts 328°
2026-04-27 02:18 -19.95860 114.49456 39946 ft 366 kts 328°
2026-04-27 02:19 -19.91313 114.47015 39947 ft 366 kts 328°
2026-04-27 02:19 -19.86775 114.44581 39947 ft 365 kts 328°
2026-04-27 02:20 -19.82242 114.42151 39945 ft 365 kts 328°
2026-04-27 02:20 -19.77704 114.39720 39946 ft 365 kts 328°
2026-04-27 02:21 -19.73160 114.37286 39945 ft 365 kts 328°
2026-04-27 02:21 -19.68644 114.34870 39949 ft 365 kts 328°
2026-04-27 02:22 -19.64069 114.32423 39950 ft 367 kts 328°
2026-04-27 02:22 -19.59530 114.29998 39947 ft 367 kts 328°
2026-04-27 02:23 -19.54942 114.27548 39946 ft 367 kts 328°
2026-04-27 02:23 -19.50386 114.25122 39948 ft 367 kts 329°
2026-04-27 02:24 -19.45590 114.23135 39946 ft 370 kts 334°
2026-04-27 02:24 -19.40753 114.21249 39944 ft 371 kts 334°
2026-04-27 02:25 -19.35911 114.19358 39947 ft 371 kts 334°
2026-04-27 02:25 -19.31040 114.17455 39948 ft 372 kts 334°
2026-04-27 02:26 -19.26188 114.15560 39946 ft 372 kts 334°
2026-04-27 02:26 -19.21327 114.13661 39948 ft 372 kts 334°
2026-04-27 02:27 -19.16480 114.11768 39947 ft 372 kts 334°
2026-04-27 02:27 -19.11598 114.09862 39948 ft 372 kts 335°
2026-04-27 02:28 -19.06751 114.07970 39949 ft 372 kts 335°
2026-04-27 02:28 -19.01075 114.05757 39946 ft 372 kts 335°
2026-04-27 02:29 -18.97034 114.04181 39946 ft 373 kts 335°
2026-04-27 02:29 -18.92166 114.02284 39947 ft 372 kts 335°
2026-04-27 02:30 -18.87288 114.00384 39943 ft 373 kts 335°
2026-04-27 02:30 -18.82418 113.98489 39944 ft 374 kts 335°
2026-04-27 02:31 -18.77506 113.96578 39943 ft 374 kts 335°
2026-04-27 02:31 -18.72635 113.94684 39941 ft 375 kts 335°
2026-04-27 02:32 -18.67738 113.92781 39942 ft 375 kts 335°
2026-04-27 02:32 -18.62821 113.90872 39939 ft 375 kts 335°
2026-04-27 02:33 -18.57917 113.88969 39937 ft 376 kts 335°
2026-04-27 02:33 -18.53008 113.87064 39939 ft 376 kts 335°
2026-04-27 02:34 -18.48083 113.85156 39935 ft 377 kts 335°
2026-04-27 02:34 -18.43164 113.83250 39939 ft 377 kts 335°
2026-04-27 02:35 -18.38204 113.81331 39935 ft 377 kts 335°
2026-04-27 02:35 -18.33310 113.79436 39935 ft 377 kts 335°
2026-04-27 02:36 -18.28354 113.77520 39933 ft 377 kts 335°
2026-04-27 02:36 -18.23418 113.75613 39928 ft 378 kts 335°
2026-04-27 02:37 -18.18485 113.73708 39927 ft 378 kts 335°
2026-04-27 02:37 -18.13535 113.71797 39928 ft 379 kts 335°
2026-04-27 02:38 -18.08579 113.69885 39928 ft 379 kts 335°
2026-04-27 02:38 -18.03620 113.67973 39937 ft 379 kts 335°
2026-04-27 02:39 -17.98681 113.66071 39944 ft 380 kts 335°
2026-04-27 02:39 -17.93708 113.64156 39950 ft 380 kts 336°
2026-04-27 02:40 -17.88713 113.62234 39950 ft 380 kts 335°
2026-04-27 02:40 -17.83740 113.60321 39941 ft 381 kts 335°
2026-04-27 02:41 -17.78760 113.58407 39944 ft 380 kts 336°
2026-04-27 02:41 -17.73815 113.56507 39950 ft 380 kts 336°
2026-04-27 02:42 -17.68814 113.54587 39946 ft 380 kts 335°
2026-04-27 02:42 -17.63883 113.52695 39945 ft 379 kts 336°
2026-04-27 02:43 -17.58897 113.50782 39945 ft 380 kts 336°
2026-04-27 02:43 -17.53941 113.48882 39946 ft 380 kts 336°
2026-04-27 02:44 -17.48976 113.46980 39944 ft 380 kts 336°
2026-04-27 02:44 -17.43999 113.45075 39945 ft 380 kts 336°
2026-04-27 02:45 -17.39023 113.43172 39945 ft 380 kts 336°
2026-04-27 02:45 -17.34043 113.41267 39940 ft 380 kts 336°
2026-04-27 02:46 -17.29079 113.39370 39936 ft 380 kts 336°
2026-04-27 02:46 -17.24111 113.37472 39932 ft 380 kts 336°
2026-04-27 02:47 -17.19133 113.35573 39932 ft 380 kts 336°
2026-04-27 02:47 -17.14154 113.33673 39932 ft 381 kts 337°
2026-04-27 02:48 -17.09155 113.31767 39926 ft 381 kts 337°
2026-04-27 02:48 -17.04189 113.29874 39925 ft 381 kts 337°
2026-04-27 02:49 -16.99209 113.27977 39926 ft 381 kts 337°
2026-04-27 02:49 -16.94196 113.26069 39927 ft 381 kts 338°
2026-04-27 02:50 -16.89220 113.24176 39925 ft 380 kts 337°
2026-04-27 02:50 -16.84235 113.22280 39928 ft 381 kts 337°
2026-04-27 02:51 -16.79272 113.20394 39927 ft 380 kts 338°
2026-04-27 02:51 -16.74273 113.18495 39926 ft 380 kts 338°
2026-04-27 02:52 -16.68483 113.16297 39927 ft 380 kts 338°
2026-04-27 02:52 -16.64338 113.14725 39926 ft 380 kts 338°
2026-04-27 02:53 -16.59359 113.12837 39927 ft 381 kts 338°
2026-04-27 02:53 -16.53542 113.10632 39929 ft 381 kts 338°
2026-04-27 02:54 -16.49359 113.09047 39928 ft 381 kts 338°
2026-04-27 02:54 -16.44381 113.07162 39927 ft 381 kts 338°
2026-04-27 02:55 -16.39399 113.05277 39925 ft 380 kts 338°
2026-04-27 02:55 -16.34432 113.03398 39929 ft 380 kts 338°
2026-04-27 02:56 -16.29454 113.01517 39927 ft 380 kts 338°
2026-04-27 02:56 -16.24489 112.99641 39927 ft 380 kts 338°
2026-04-27 02:57 -16.19520 112.97765 39931 ft 380 kts 339°
2026-04-27 02:57 -16.14532 112.95882 39925 ft 380 kts 339°
2026-04-27 02:58 -16.09582 112.94016 39927 ft 380 kts 339°
2026-04-27 02:58 -16.04593 112.92135 39928 ft 380 kts 339°
2026-04-27 02:59 -15.99619 112.90260 39925 ft 381 kts 339°
2026-04-27 02:59 -15.94635 112.88384 39921 ft 380 kts 339°
2026-04-27 03:00 -15.89631 112.86500 39917 ft 380 kts 339°
2026-04-27 03:00 -15.84645 112.84624 39908 ft 381 kts 339°
2026-04-27 03:01 -15.79656 112.82748 39903 ft 381 kts 339°
2026-04-27 03:01 -15.74674 112.80876 39907 ft 381 kts 339°
2026-04-27 03:02 -15.69706 112.79010 39912 ft 381 kts 339°
2026-04-27 03:02 -15.64710 112.77135 39920 ft 382 kts 339°
2026-04-27 03:03 -15.57195 112.74316 39927 ft 382 kts 339°
2026-04-27 03:04 -15.52196 112.72441 39925 ft 382 kts 339°
2026-04-27 03:04 -15.47198 112.70569 39928 ft 382 kts 339°
2026-04-27 03:05 -15.42170 112.68685 39924 ft 382 kts 339°
2026-04-27 03:05 -15.37175 112.66815 39925 ft 382 kts 339°
2026-04-27 03:06 -15.32172 112.64944 39926 ft 382 kts 339°
2026-04-27 03:06 -15.27153 112.63067 39923 ft 382 kts 339°
2026-04-27 03:07 -15.22140 112.61193 39927 ft 383 kts 339°
2026-04-27 03:07 -15.17125 112.59320 39925 ft 383 kts 339°
2026-04-27 03:08 -15.12104 112.57445 39928 ft 383 kts 340°
2026-04-27 03:08 -15.07076 112.55569 39913 ft 383 kts 340°
2026-04-27 03:09 -15.02073 112.53702 39908 ft 383 kts 340°
2026-04-27 03:09 -14.97064 112.51835 39910 ft 383 kts 340°
2026-04-27 03:10 -14.92055 112.49969 39907 ft 383 kts 340°
2026-04-27 03:10 -14.87022 112.48094 39905 ft 383 kts 340°
2026-04-27 03:11 -14.82010 112.46228 39906 ft 383 kts 340°
2026-04-27 03:11 -14.76991 112.44361 39906 ft 383 kts 340°
2026-04-27 03:12 -14.71965 112.42492 39908 ft 383 kts 340°
2026-04-27 03:12 -14.66928 112.40619 39912 ft 383 kts 340°
2026-04-27 03:13 -14.61899 112.38751 39911 ft 383 kts 340°
2026-04-27 03:13 -14.56877 112.36886 39915 ft 383 kts 340°
2026-04-27 03:14 -14.51831 112.35014 39912 ft 384 kts 340°
2026-04-27 03:14 -14.46813 112.33152 39915 ft 384 kts 340°
2026-04-27 03:15 -14.41789 112.31289 39911 ft 384 kts 340°
2026-04-27 03:15 -14.36756 112.29424 39908 ft 383 kts 340°
2026-04-27 03:16 -14.31729 112.27562 39907 ft 383 kts 340°
2026-04-27 03:16 -14.26708 112.25703 39913 ft 383 kts 340°
2026-04-27 03:17 -14.21693 112.23847 39906 ft 384 kts 340°
2026-04-27 03:17 -14.16654 112.21983 39907 ft 384 kts 340°
2026-04-27 03:18 -14.11613 112.20120 39909 ft 384 kts 340°
2026-04-27 03:18 -14.06566 112.18256 39888 ft 384 kts 340°
2026-04-27 03:19 -14.01544 112.16401 39885 ft 384 kts 340°
2026-04-27 03:19 -13.96509 112.14542 39896 ft 383 kts 340°
2026-04-27 03:20 -13.91477 112.12686 39900 ft 384 kts 340°
2026-04-27 03:20 -13.86441 112.10828 39905 ft 385 kts 340°
2026-04-27 03:21 -13.81366 112.08958 39898 ft 385 kts 340°
2026-04-27 03:21 -13.76326 112.07101 39898 ft 385 kts 340°
2026-04-27 03:22 -13.71272 112.05240 39901 ft 384 kts 340°
2026-04-27 03:22 -13.66250 112.03391 39899 ft 385 kts 340°
2026-04-27 03:23 -13.61198 112.01533 39899 ft 385 kts 340°
2026-04-27 03:23 -13.56141 111.99674 39901 ft 386 kts 340°
2026-04-27 03:24 -13.51085 111.97815 39903 ft 386 kts 340°
2026-04-27 03:24 -13.46012 111.95951 39904 ft 386 kts 340°
2026-04-27 03:25 -13.40934 111.94087 39908 ft 387 kts 340°
2026-04-27 03:25 -13.35858 111.92223 39908 ft 387 kts 340°
2026-04-27 03:26 -13.30780 111.90360 39906 ft 388 kts 340°
2026-04-27 03:26 -13.25671 111.88487 39905 ft 388 kts 340°
2026-04-27 03:27 -13.20569 111.86616 39908 ft 389 kts 340°
2026-04-27 03:27 -13.15462 111.84746 39906 ft 389 kts 340°
2026-04-27 03:28 -13.10386 111.82886 39905 ft 389 kts 340°
2026-04-27 03:28 -13.05273 111.81015 39903 ft 389 kts 340°
2026-04-27 03:29 -13.00151 111.79141 39909 ft 390 kts 340°
2026-04-27 03:29 -12.95025 111.77266 39907 ft 391 kts 340°
2026-04-27 03:30 -12.89907 111.75395 39907 ft 391 kts 341°
2026-04-27 03:30 -12.84782 111.73522 39903 ft 392 kts 341°
2026-04-27 03:31 -12.79615 111.71635 39907 ft 392 kts 341°
2026-04-27 03:31 -12.74456 111.69752 39905 ft 393 kts 341°
2026-04-27 03:32 -12.69321 111.67878 39906 ft 393 kts 341°
2026-04-27 03:32 -12.64165 111.65997 39897 ft 393 kts 341°
2026-04-27 03:33 -12.58971 111.64103 39886 ft 394 kts 341°
2026-04-27 03:33 -12.53824 111.62228 39890 ft 394 kts 341°
2026-04-27 03:34 -12.48650 111.60343 39887 ft 395 kts 341°
2026-04-27 03:34 -12.43437 111.58445 39886 ft 395 kts 341°
2026-04-27 03:35 -12.38256 111.56559 39885 ft 395 kts 341°
2026-04-27 03:35 -12.33076 111.54675 39885 ft 396 kts 341°
2026-04-27 03:36 -12.27853 111.52775 39886 ft 396 kts 341°
2026-04-27 03:36 -12.22667 111.50890 39883 ft 396 kts 341°
2026-04-27 03:37 -12.17462 111.48999 39884 ft 397 kts 341°
2026-04-27 03:37 -12.12260 111.47110 39887 ft 398 kts 341°
2026-04-27 03:38 -12.06999 111.45200 39885 ft 398 kts 341°
2026-04-27 03:38 -12.01814 111.43271 39886 ft 399 kts 337°
2026-04-27 03:38 -11.98556 111.41435 39883 ft 401 kts 326°
2026-04-27 03:39 -11.97061 111.40282 39884 ft 402 kts 323°
2026-04-27 03:39 -11.92693 111.36716 39888 ft 403 kts 323°
2026-04-27 03:40 -11.88316 111.33151 39884 ft 403 kts 323°
2026-04-27 03:40 -11.83934 111.29582 39887 ft 403 kts 323°
2026-04-27 03:41 -11.79553 111.26015 39883 ft 403 kts 323°
2026-04-27 03:41 -11.75160 111.22440 39884 ft 403 kts 323°
2026-04-27 03:42 -11.70787 111.18884 39887 ft 403 kts 323°
2026-04-27 03:42 -11.66395 111.15313 39886 ft 404 kts 323°
2026-04-27 03:43 -11.62000 111.11741 39887 ft 404 kts 323°
2026-04-27 03:43 -11.57602 111.08169 39891 ft 403 kts 323°
2026-04-27 03:44 -11.53211 111.04603 39895 ft 403 kts 323°
2026-04-27 03:44 -11.48088 111.00445 39895 ft 403 kts 323°
2026-04-27 03:45 -11.44432 110.97479 39890 ft 404 kts 323°
2026-04-27 03:45 -11.40029 110.93909 39887 ft 405 kts 323°
2026-04-27 03:46 -11.35615 110.90331 39879 ft 405 kts 323°
2026-04-27 03:46 -11.31209 110.86760 39876 ft 405 kts 323°
2026-04-27 03:47 -11.26803 110.83191 39876 ft 404 kts 323°
2026-04-27 03:47 -11.22391 110.79618 39873 ft 405 kts 323°
2026-04-27 03:48 -11.17975 110.76045 39875 ft 405 kts 323°
2026-04-27 03:48 -11.13563 110.72475 39874 ft 406 kts 323°
2026-04-27 03:49 -11.09131 110.68892 39874 ft 407 kts 323°
2026-04-27 03:49 -11.04702 110.65311 39875 ft 407 kts 323°
2026-04-27 03:50 -11.00254 110.61716 39870 ft 407 kts 323°
2026-04-27 03:50 -10.95836 110.58148 39869 ft 407 kts 323°
2026-04-27 03:51 -10.91389 110.54558 39873 ft 407 kts 323°
2026-04-27 03:51 -10.86952 110.50977 39879 ft 408 kts 323°
2026-04-27 03:52 -10.82514 110.47397 39882 ft 408 kts 323°
2026-04-27 03:52 -10.78072 110.43814 39884 ft 409 kts 323°
2026-04-27 03:53 -10.73593 110.40203 39881 ft 408 kts 323°
2026-04-27 03:53 -10.69168 110.36637 39883 ft 408 kts 323°
2026-04-27 03:54 -10.64703 110.33041 39882 ft 408 kts 323°
2026-04-27 03:54 -10.60254 110.29458 39880 ft 408 kts 323°
2026-04-27 03:55 -10.55799 110.25871 39884 ft 408 kts 323°
2026-04-27 03:55 -10.51351 110.22293 39880 ft 408 kts 323°
2026-04-27 03:56 -10.46907 110.18718 39883 ft 408 kts 323°
2026-04-27 03:56 -10.42452 110.15136 39884 ft 408 kts 323°
2026-04-27 03:57 -10.38007 110.11563 39883 ft 408 kts 323°
2026-04-27 03:57 -10.33558 110.07989 39878 ft 408 kts 323°
2026-04-27 03:58 -10.29084 110.04395 39866 ft 408 kts 323°
2026-04-27 03:58 -10.24629 110.00819 39869 ft 408 kts 323°
2026-04-27 03:59 -10.20192 109.97257 39868 ft 408 kts 323°
2026-04-27 03:59 -10.15731 109.93677 39867 ft 407 kts 323°
2026-04-27 04:00 -10.11281 109.90108 39864 ft 408 kts 323°
2026-04-27 04:00 -10.06827 109.86538 39864 ft 408 kts 323°
2026-04-27 04:01 -10.02371 109.82967 39866 ft 408 kts 323°
2026-04-27 04:01 -9.97928 109.79406 39866 ft 407 kts 323°
2026-04-27 04:02 -9.93477 109.75841 39864 ft 407 kts 323°
2026-04-27 04:02 -9.89033 109.72283 39860 ft 407 kts 323°
2026-04-27 04:03 -9.84571 109.68712 39866 ft 408 kts 323°
2026-04-27 04:03 -9.80107 109.65140 39865 ft 408 kts 323°
2026-04-27 04:04 -9.75646 109.61572 39862 ft 408 kts 323°
2026-04-27 04:04 -9.70461 109.57426 39866 ft 409 kts 323°
2026-04-27 04:05 -9.66738 109.54450 39863 ft 408 kts 323°
2026-04-27 04:05 -9.62259 109.50871 39862 ft 408 kts 323°
2026-04-27 04:06 -9.57808 109.47316 39865 ft 408 kts 323°
2026-04-27 04:06 -9.53345 109.43752 39864 ft 408 kts 323°
2026-04-27 04:07 -9.46627 109.38390 39869 ft 409 kts 324°
2026-04-27 04:07 -9.42146 109.34815 39872 ft 410 kts 324°
2026-04-27 04:08 -9.37666 109.31242 39868 ft 409 kts 324°
2026-04-27 04:08 -9.32448 109.27083 39870 ft 409 kts 324°
2026-04-27 04:09 -9.28721 109.24112 39867 ft 409 kts 324°
2026-04-27 04:09 -9.24232 109.20535 39869 ft 410 kts 324°
2026-04-27 04:10 -9.19742 109.16959 39874 ft 411 kts 324°
2026-04-27 04:10 -9.15240 109.13375 39878 ft 412 kts 324°
2026-04-27 04:11 -9.10736 109.09790 39876 ft 411 kts 324°
2026-04-27 04:11 -9.06241 109.06213 39880 ft 411 kts 324°
2026-04-27 04:12 -9.01738 109.02631 39877 ft 412 kts 324°
2026-04-27 04:12 -8.97249 108.99062 39866 ft 413 kts 324°
2026-04-27 04:13 -8.92720 108.95462 39866 ft 413 kts 324°
2026-04-27 04:13 -8.88171 108.91846 39864 ft 413 kts 324°
2026-04-27 04:14 -8.83645 108.88250 39863 ft 413 kts 324°
2026-04-27 04:14 -8.79136 108.84669 39864 ft 412 kts 324°
2026-04-27 04:15 -8.74638 108.81098 39863 ft 412 kts 324°
2026-04-27 04:15 -8.70102 108.77499 39865 ft 412 kts 324°
2026-04-27 04:16 -8.65589 108.73917 39866 ft 412 kts 324°
2026-04-27 04:16 -8.61080 108.70341 39864 ft 412 kts 324°
2026-04-27 04:17 -8.56566 108.66762 39865 ft 412 kts 324°
2026-04-27 04:17 -8.51328 108.62609 39864 ft 412 kts 324°
2026-04-27 04:18 -8.47551 108.59617 39865 ft 412 kts 324°
2026-04-27 04:18 -8.43047 108.56049 39865 ft 412 kts 324°
2026-04-27 04:19 -8.38538 108.52479 39866 ft 413 kts 324°
2026-04-27 04:19 -8.33993 108.48880 39864 ft 413 kts 324°
2026-04-27 04:20 -8.29477 108.45306 39864 ft 412 kts 324°
2026-04-27 04:20 -8.24966 108.41737 39864 ft 412 kts 324°
2026-04-27 04:21 -8.20450 108.38165 39864 ft 412 kts 324°
2026-04-27 04:21 -8.15922 108.34584 39863 ft 412 kts 324°
2026-04-27 04:22 -8.11404 108.31060 39863 ft 412 kts 328°
2026-04-27 04:22 -8.06337 108.28420 39863 ft 407 kts 343°
2026-04-27 04:23 -8.00818 108.27261 39858 ft 403 kts 359°
2026-04-27 04:23 -7.95209 108.27357 39847 ft 401 kts
2026-04-27 04:24 -7.89619 108.27584 39849 ft 399 kts
2026-04-27 04:24 -7.84047 108.27808 39855 ft 399 kts
2026-04-27 04:25 -7.78473 108.28033 39855 ft 400 kts
2026-04-27 04:25 -7.72903 108.28256 39859 ft 400 kts
2026-04-27 04:26 -7.67317 108.28480 39879 ft 400 kts
2026-04-27 04:26 -7.61756 108.28702 39881 ft 401 kts
2026-04-27 04:27 -7.56166 108.28924 39901 ft 400 kts
2026-04-27 04:27 -7.50590 108.29146 39917 ft 400 kts
2026-04-27 04:28 -7.45012 108.29367 39937 ft 400 kts
2026-04-27 04:28 -7.39459 108.29588 39940 ft 401 kts
2026-04-27 04:29 -7.33864 108.29809 39960 ft 401 kts
2026-04-27 04:29 -7.28280 108.30030 39965 ft 400 kts
2026-04-27 04:30 -7.22699 108.30251 39974 ft 400 kts
2026-04-27 04:30 -7.17114 108.30473 39971 ft 400 kts
2026-04-27 04:31 -7.11558 108.30693 39971 ft 400 kts
2026-04-27 04:31 -7.05972 108.30913 39951 ft 400 kts
2026-04-27 04:32 -7.00393 108.31135 39966 ft 400 kts
2026-04-27 04:32 -6.94826 108.31355 39951 ft 400 kts
2026-04-27 04:33 -6.89227 108.31576 39941 ft 400 kts
2026-04-27 04:33 -6.83668 108.31795 39912 ft 400 kts
2026-04-27 04:34 -6.78076 108.32017 39890 ft 400 kts
2026-04-27 04:34 -6.72508 108.32237 39871 ft 400 kts
2026-04-27 04:35 -6.66916 108.32458 39873 ft 400 kts
2026-04-27 04:35 -6.61350 108.32677 39863 ft 401 kts
2026-04-27 04:36 -6.55766 108.32897 39858 ft 401 kts
2026-04-27 04:36 -6.50156 108.33118 39858 ft 401 kts
2026-04-27 04:37 -6.44574 108.33339 39858 ft 402 kts
2026-04-27 04:37 -6.38019 108.33597 39854 ft 402 kts
2026-04-27 04:38 -6.33349 108.33781 39849 ft 402 kts
2026-04-27 04:38 -6.27767 108.34052 39846 ft 401 kts
2026-04-27 04:39 -6.22299 108.35059 39842 ft 397 kts 18°
2026-04-27 04:39 -6.16951 108.36558 39848 ft 397 kts 18°
2026-04-27 04:40 -6.11591 108.38063 39848 ft 398 kts 19°
2026-04-27 04:40 -6.06621 108.40313 39843 ft 393 kts 36°
2026-04-27 04:41 -6.02161 108.44785 39846 ft 388 kts 57°
2026-04-27 04:41 -5.99963 108.49695 39845 ft 387 kts 75°
2026-04-27 04:42 -5.99557 108.54163 39844 ft 389 kts 93°
2026-04-27 04:42 -6.00925 108.59435 39843 ft 395 kts 112°
2026-04-27 04:43 -6.04065 108.64005 39847 ft 404 kts 131°
2026-04-27 04:43 -6.08711 108.67282 39845 ft 414 kts 152°
2026-04-27 04:44 -6.14354 108.68737 39842 ft 424 kts 173°
2026-04-27 04:44 -6.20283 108.68108 39842 ft 433 kts 194°
2026-04-27 04:45 -6.25708 108.65451 39840 ft 440 kts 215°
2026-04-27 04:45 -6.29978 108.61055 39839 ft 443 kts 236°
2026-04-27 04:46 -6.32529 108.55454 39837 ft 441 kts 257°
2026-04-27 04:46 -6.33035 108.49387 39833 ft 437 kts 277°
2026-04-27 04:47 -6.31913 108.43423 39825 ft 435 kts 283°
2026-04-27 04:47 -6.30978 108.37404 39836 ft 436 kts 278°
2026-04-27 04:48 -6.30293 108.31371 39830 ft 434 kts 284°
2026-04-27 04:48 -6.28130 108.25799 39828 ft 426 kts 305°
2026-04-27 04:49 -6.24247 108.21426 39825 ft 418 kts 326°
2026-04-27 04:49 -6.19164 108.18767 39832 ft 409 kts 347°
2026-04-27 04:50 -6.12612 108.18198 39831 ft 401 kts 11°
2026-04-27 04:50 -6.08195 108.19443 39834 ft 396 kts 27°
2026-04-27 04:51 -6.03677 108.22548 39831 ft 392 kts 46°
2026-04-27 04:51 -6.00202 108.27818 39835 ft 389 kts 69°
2026-04-27 04:52 -5.99174 108.32207 39835 ft 390 kts 84°
2026-04-27 04:52 -5.99149 108.37620 39838 ft 391 kts 89°
2026-04-27 04:53 -5.99214 108.43996 39832 ft 391 kts 89°
2026-04-27 04:53 -5.99261 108.48525 39832 ft 390 kts 89°
2026-04-27 04:54 -5.99766 108.53932 39836 ft 392 kts 102°
2026-04-27 04:54 -6.01067 108.57341 39841 ft 396 kts 115°
2026-04-27 04:54 -6.02015 108.58935 39840 ft 399 kts 121°
2026-04-27 04:55 -6.05911 108.62954 39845 ft 409 kts 141°
2026-04-27 04:55 -6.12048 108.65659 39844 ft 421 kts 165°
2026-04-27 04:56 -6.16930 108.65935 39842 ft 428 kts 182°
2026-04-27 04:56 -6.19906 108.65394 39847 ft 432 kts 193°
2026-04-27 04:56 -6.22731 108.64345 39842 ft 436 kts 204°
2026-04-27 04:57 -6.27705 108.60825 39846 ft 441 kts 225°
2026-04-27 04:57 -6.31221 108.55798 39847 ft 442 kts 246°
2026-04-27 04:58 -6.32834 108.49898 39842 ft 439 kts 266°
2026-04-27 04:58 -6.32859 108.46863 39843 ft 437 kts 277°
2026-04-27 04:58 -6.32387 108.43862 39839 ft 435 kts 284°
2026-04-27 04:59 -6.31311 108.37896 39834 ft 436 kts 280°
2026-04-27 04:59 -6.30510 108.31853 39831 ft 435 kts 284°
2026-04-27 05:00 -6.28364 108.26270 39829 ft 428 kts 304°
2026-04-27 05:00 -6.26624 108.23893 39838 ft 424 kts 315°
2026-04-27 05:00 -6.24470 108.21847 39825 ft 419 kts 326°
2026-04-27 05:01 -6.21183 108.19840 39829 ft 413 kts 340°
2026-04-27 05:01 -6.19422 108.19167 39830 ft 409 kts 346°
2026-04-27 05:01 -6.16621 108.18562 39831 ft 405 kts 357°
2026-04-27 05:01 -6.13828 108.18481 39833 ft 401 kts
2026-04-27 05:02 -6.08462 108.19805 39832 ft 395 kts 27°
2026-04-27 05:02 -6.03957 108.22903 39824 ft 391 kts 47°
2026-04-27 05:03 -6.02219 108.24968 39825 ft 390 kts 56°
2026-04-27 05:03 -5.99955 108.29864 39823 ft 389 kts 75°
2026-04-27 05:04 -5.99476 108.36161 39827 ft 391 kts 89°
2026-04-27 05:04 -5.99523 108.40702 39822 ft 391 kts 89°
2026-04-27 05:05 -5.99578 108.46152 39824 ft 390 kts 89°
2026-04-27 05:05 -5.99713 108.51583 39821 ft 390 kts 95°
2026-04-27 05:06 -6.01235 108.56783 39823 ft 395 kts 114°
2026-04-27 05:06 -6.04532 108.61269 39826 ft 404 kts 133°
2026-04-27 05:07 -6.09249 108.64373 39826 ft 415 kts 153°
2026-04-27 05:07 -6.12026 108.65269 39824 ft 421 kts 164°
2026-04-27 05:07 -6.14975 108.65657 39824 ft 426 kts 174°
2026-04-27 05:07 -6.18972 108.65346 39825 ft 433 kts 188°
2026-04-27 05:08 -6.20904 108.64848 39822 ft 435 kts 195°
2026-04-27 05:08 -6.24602 108.63168 39825 ft 439 kts 210°
2026-04-27 05:08 -6.26274 108.62027 39824 ft 441 kts 217°
2026-04-27 05:09 -6.30438 108.57494 39828 ft 443 kts 237°
2026-04-27 05:09 -6.31882 108.54752 39827 ft 443 kts 248°
2026-04-27 05:09 -6.32824 108.51844 39834 ft 442 kts 258°
2026-04-27 05:09 -6.33260 108.48783 39834 ft 439 kts 269°
2026-04-27 05:10 -6.33163 108.45747 39838 ft 437 kts 279°
2026-04-27 05:10 -6.31926 108.39810 39837 ft 435 kts 283°
2026-04-27 05:11 -6.30934 108.33807 39839 ft 436 kts 280°
2026-04-27 05:11 -6.30049 108.29876 39839 ft 432 kts 292°
2026-04-27 05:11 -6.29295 108.28047 39836 ft 429 kts 299°
2026-04-27 05:11 -6.27755 108.25468 39830 ft 425 kts 310°
2026-04-27 05:12 -6.25825 108.23257 39833 ft 421 kts 320°
2026-04-27 05:12 -6.21015 108.20080 39828 ft 412 kts 341°
2026-04-27 05:13 -6.15484 108.18832 39826 ft 403 kts
2026-04-27 05:13 -6.09994 108.19582 39826 ft 396 kts 21°
2026-04-27 05:14 -6.05147 108.22158 39825 ft 392 kts 40°
2026-04-27 05:14 -6.01536 108.26183 39826 ft 389 kts 59°
2026-04-27 05:15 -5.99523 108.31166 39823 ft 388 kts 78°
2026-04-27 05:15 -5.99182 108.36565 39824 ft 389 kts 89°
2026-04-27 05:16 -5.99239 108.42012 39822 ft 390 kts 89°
2026-04-27 05:16 -5.99294 108.47446 39825 ft 390 kts 89°
2026-04-27 05:17 -5.99579 108.52856 39823 ft 390 kts 98°
2026-04-27 05:17 -6.01465 108.57956 39823 ft 397 kts 117°
2026-04-27 05:18 -6.05042 108.62209 39826 ft 406 kts 136°
2026-04-27 05:18 -6.10029 108.65059 39826 ft 417 kts 157°
2026-04-27 05:19 -6.15855 108.65982 39825 ft 428 kts 178°
2026-04-27 05:19 -6.21742 108.64804 39821 ft 437 kts 199°
2026-04-27 05:19 -6.24465 108.63462 39824 ft 440 kts 210°
2026-04-27 05:20 -6.26945 108.61655 39824 ft 442 kts 220°
2026-04-27 05:20 -6.29102 108.59426 39828 ft 444 kts 231°
2026-04-27 05:20 -6.30832 108.56888 39825 ft 444 kts 241°
2026-04-27 05:21 -6.32897 108.51086 39827 ft 442 kts 262°
2026-04-27 05:21 -6.32885 108.44984 39831 ft 437 kts 283°
2026-04-27 05:22 -6.31656 108.39022 39828 ft 437 kts 282°
2026-04-27 05:22 -6.30769 108.32979 39828 ft 437 kts 281°
2026-04-27 05:23 -6.28911 108.27241 39830 ft 429 kts 302°
2026-04-27 05:23 -6.25284 108.22623 39825 ft 420 kts 322°
2026-04-27 05:23 -6.22102 108.20422 39829 ft 414 kts 336°
2026-04-27 05:24 -6.19457 108.19328 39827 ft 409 kts 347°
2026-04-27 05:24 -6.14812 108.18625 39821 ft 403 kts
2026-04-27 05:25 -6.09354 108.19611 39812 ft 396 kts 24°
2026-04-27 05:25 -6.03988 108.23004 39805 ft 391 kts 46°
2026-04-27 05:26 -6.00821 108.27400 39808 ft 388 kts 65°
2026-04-27 05:26 -5.99367 108.32577 39813 ft 389 kts 83°
2026-04-27 05:27 -5.99305 108.37087 39815 ft 389 kts 89°
2026-04-27 05:27 -5.99363 108.42521 39820 ft 389 kts 89°
2026-04-27 05:28 -5.99420 108.47946 39825 ft 389 kts 89°
2026-04-27 05:28 -5.99817 108.53315 39820 ft 391 kts 101°
2026-04-27 05:29 -6.01927 108.58387 39822 ft 398 kts 119°
2026-04-27 05:29 -6.05687 108.62489 39824 ft 407 kts 139°
2026-04-27 05:30 -6.10788 108.65104 39825 ft 418 kts 159°
2026-04-27 05:30 -6.14676 108.65781 39821 ft 426 kts 173°
2026-04-27 05:30 -6.16663 108.65768 39825 ft 429 kts 180°
2026-04-27 05:30 -6.19612 108.65314 39826 ft 434 kts 191°
2026-04-27 05:31 -6.22508 108.64332 39823 ft 438 kts 201°
2026-04-27 05:31 -6.25171 108.62875 39822 ft 440 kts 212°
2026-04-27 05:31 -6.27593 108.60944 39821 ft 442 kts 223°
2026-04-27 05:32 -6.31262 108.56017 39822 ft 444 kts 244°
2026-04-27 05:32 -6.33066 108.50144 39825 ft 442 kts 265°
2026-04-27 05:33 -6.32789 108.44054 39828 ft 436 kts 284°
2026-04-27 05:33 -6.31557 108.38088 39826 ft 437 kts 282°
2026-04-27 05:34 -6.30651 108.32069 39820 ft 436 kts 284°
2026-04-27 05:34 -6.28477 108.26472 39823 ft 428 kts 305°
2026-04-27 05:35 -6.23793 108.21500 39825 ft 417 kts 329°
2026-04-27 05:35 -6.18597 108.19159 39826 ft 408 kts 351°
2026-04-27 05:36 -6.13934 108.18331 39682 ft 413 kts 350°
2026-04-27 05:36 -6.11125 108.17416 39017 ft 436 kts 340°
2026-04-27 05:36 -6.08365 108.15952 38404 ft 456 kts 330°
2026-04-27 05:36 -6.05813 108.14005 37797 ft 469 kts 321°
2026-04-27 05:37 -6.03538 108.11601 37160 ft 474 kts 311°
2026-04-27 05:37 -6.01673 108.08879 36539 ft 477 kts 303°
2026-04-27 05:37 -6.00039 108.05964 35909 ft 479 kts 299°
2026-04-27 05:37 -5.98696 108.02932 35294 ft 481 kts 292°
2026-04-27 05:38 -5.97655 107.99718 34669 ft 483 kts 286°
2026-04-27 05:38 -5.96960 107.96438 34043 ft 482 kts 280°
2026-04-27 05:38 -5.96565 107.92002 32885 ft 481 kts 272°
2026-04-27 05:38 -5.96545 107.89793 32369 ft 479 kts 271°
2026-04-27 05:39 -5.96530 107.86453 31670 ft 475 kts 271°
2026-04-27 05:39 -5.96511 107.83146 30953 ft 471 kts 271°
2026-04-27 05:39 -5.96491 107.79865 29856 ft 476 kts 271°
2026-04-27 05:39 -5.96471 107.76569 28823 ft 478 kts 271°
2026-04-27 05:40 -5.96451 107.73229 27945 ft 476 kts 271°
2026-04-27 05:40 -5.96431 107.69933 27183 ft 471 kts 271°
2026-04-27 05:40 -5.96411 107.66698 26484 ft 465 kts 271°
2026-04-27 05:40 -5.96391 107.63460 25797 ft 459 kts 271°
2026-04-27 05:41 -5.96371 107.60298 25096 ft 454 kts 271°
2026-04-27 05:41 -5.96351 107.57174 24392 ft 448 kts 271°
2026-04-27 05:41 -5.96331 107.54041 23707 ft 442 kts 271°
2026-04-27 05:41 -5.96311 107.51006 23034 ft 437 kts 271°
2026-04-27 05:42 -5.96291 107.47999 22349 ft 431 kts 271°
2026-04-27 05:42 -5.96272 107.45024 21686 ft 425 kts 271°
2026-04-27 05:42 -5.96252 107.42045 20938 ft 422 kts 270°
2026-04-27 05:42 -5.96232 107.39126 20151 ft 420 kts 270°
2026-04-27 05:43 -5.96212 107.36211 19379 ft 417 kts 270°
2026-04-27 05:43 -5.96192 107.33333 18655 ft 414 kts 270°
2026-04-27 05:43 -5.96176 107.30470 18010 ft 408 kts 270°
2026-04-27 05:43 -5.96172 107.27626 17544 ft 406 kts 270°
2026-04-27 05:44 -5.96169 107.24809 17082 ft 407 kts 270°
2026-04-27 05:44 -5.96164 107.21983 16635 ft 404 kts 270°
2026-04-27 05:44 -5.96160 107.19173 16186 ft 402 kts 270°
2026-04-27 05:44 -5.96156 107.16394 15771 ft 398 kts 270°
2026-04-27 05:45 -5.96151 107.13650 15330 ft 392 kts 269°
2026-04-27 05:45 -5.96146 107.10931 14888 ft 384 kts 269°
2026-04-27 05:45 -5.96142 107.08302 14476 ft 378 kts 269°
2026-04-27 05:45 -5.96137 107.05666 14059 ft 370 kts 269°
2026-04-27 05:46 -5.96132 107.03139 13663 ft 363 kts 269°
2026-04-27 05:46 -5.96126 107.00594 13243 ft 358 kts 269°
2026-04-27 05:46 -5.96120 106.98128 12887 ft 350 kts 269°
2026-04-27 05:46 -5.96114 106.95731 12473 ft 344 kts 269°
2026-04-27 05:47 -5.96108 106.93343 12103 ft 335 kts 269°
2026-04-27 05:47 -5.96102 106.91039 11760 ft 327 kts 269°
2026-04-27 05:47 -5.96097 106.88792 11608 ft 323 kts 269°
2026-04-27 05:47 -5.96091 106.86523 11119 ft 322 kts 270°
2026-04-27 05:48 -5.96086 106.84309 10832 ft 313 kts 270°
2026-04-27 05:48 -5.96080 106.82138 10448 ft 308 kts 269°
2026-04-27 05:48 -5.96076 106.80036 10172 ft 302 kts 269°
2026-04-27 05:48 -5.96404 106.77964 9791 ft 297 kts 249°
2026-04-27 05:49 -5.97171 106.76061 9435 ft 295 kts 247°
2026-04-27 05:49 -5.97945 106.74166 8994 ft 294 kts 247°
2026-04-27 05:49 -5.98712 106.72278 8679 ft 287 kts 246°
2026-04-27 05:49 -5.99457 106.70445 8314 ft 284 kts 246°
2026-04-27 05:50 -6.00205 106.68604 7949 ft 282 kts 246°
2026-04-27 05:50 -6.00941 106.66791 7597 ft 279 kts 247°
2026-04-27 05:50 -6.01663 106.65009 7237 ft 276 kts 247°
2026-04-27 05:50 -6.02383 106.63236 6885 ft 273 kts 247°
2026-04-27 05:51 -6.03102 106.61461 6554 ft 269 kts 247°
2026-04-27 05:51 -6.03806 106.59724 6202 ft 268 kts 247°
2026-04-27 05:51 -6.04505 106.57998 5843 ft 265 kts 247°
2026-04-27 05:51 -6.05188 106.56309 5541 ft 260 kts 247°
2026-04-27 05:52 -6.05860 106.54646 5265 ft 255 kts 247°
2026-04-27 05:52 -6.06519 106.53017 4960 ft 251 kts 247°
2026-04-27 05:52 -6.07177 106.51389 4669 ft 248 kts 247°
2026-04-27 05:52 -6.07817 106.49804 4371 ft 245 kts 247°
2026-04-27 05:53 -6.08451 106.48233 4081 ft 241 kts 247°
2026-04-27 05:53 -6.09081 106.46672 3804 ft 236 kts 247°
2026-04-27 05:53 -6.09686 106.45175 3533 ft 232 kts 247°
2026-04-27 05:53 -6.10387 106.43716 3259 ft 228 kts 232°
2026-04-27 05:54 -6.11560 106.42705 2919 ft 225 kts 204°
2026-04-27 05:54 -6.13074 106.42368 2656 ft 218 kts 176°
2026-04-27 05:54 -6.14563 106.42574 2381 ft 215 kts 168°
2026-04-27 05:54 -6.15971 106.42962 2176 ft 207 kts 150°
2026-04-27 05:55 -6.17032 106.43908 1971 ft 198 kts 120°
2026-04-27 05:55 -6.17478 106.45172 1965 ft 190 kts 96°
2026-04-27 05:55 -6.17502 106.46477 1965 ft 187 kts 87°
2026-04-27 05:55 -6.17469 106.47778 1968 ft 187 kts 88°
2026-04-27 05:56 -6.17427 106.49097 1957 ft 186 kts 84°
2026-04-27 05:56 -6.17072 106.50337 1961 ft 185 kts 66°
2026-04-27 05:56 -6.16562 106.51525 1964 ft 186 kts 66°
2026-04-27 05:56 -6.16069 106.52733 1951 ft 184 kts 68°
2026-04-27 05:57 -6.15609 106.53883 1937 ft 166 kts 68°
2026-04-27 05:57 -6.15188 106.54940 1916 ft 162 kts 68°
2026-04-27 05:57 -6.14775 106.55975 1693 ft 157 kts 67°
2026-04-27 05:57 -6.14370 106.56992 1513 ft 156 kts 67°
2026-04-27 05:58 -6.13966 106.58002 1315 ft 154 kts 67°
2026-04-27 05:58 -6.13571 106.58993 1117 ft 150 kts 66°
2026-04-27 05:58 -6.13211 106.59900 968 ft 135 kts 66°
2026-04-27 05:58 -6.12864 106.60769 759 ft 133 kts 66°
2026-04-27 05:59 -6.12523 106.61626 599 ft 132 kts 66°
2026-04-27 05:59 -6.12174 106.62479 456 ft 131 kts 65°
2026-04-27 05:59 -6.11837 106.63326 299 ft 130 kts 65°
2026-04-27 05:59 -6.11506 106.64162 144 ft 128 kts 65°
2026-04-27 06:00 -6.10934 106.65594 46 ft 76 kts 68°
2026-04-27 06:00 -6.10759 106.66035 46 ft 63 kts 68°
2026-04-27 06:00 -6.10636 106.66401 46 ft 43 kts 82°
2026-04-27 06:01 -6.10647 106.66602 46 ft 14 kts 104°
2026-04-27 06:01 -6.10730 106.66672 46 ft 18 kts 160°
2026-04-27 06:01 -6.10820 106.66614 46 ft 20 kts 248°
2026-04-27 06:01 -6.10878 106.66469 46 ft 24 kts 249°
2026-04-27 06:02 -6.10945 106.66302 46 ft 27 kts 249°
2026-04-27 06:02 -6.11019 106.66115 46 ft 30 kts 249°
2026-04-27 06:02 -6.11070 106.65997 46 ft 11 kts 219°
2026-04-27 06:02 -6.11158 106.66018 46 ft 15 kts 158°
2026-04-27 06:03 -6.11247 106.66087 46 ft 19 kts 103°
2026-04-27 06:03 -6.11268 106.66235 46 ft 23 kts 111°
2026-04-27 06:03 -6.11395 106.66305 46 ft 15 kts 177°
2026-04-27 06:03 -6.11463 106.66221 46 ft 18 kts 249°
2026-04-27 06:04 -6.11515 106.66088 46 ft 22 kts 248°
2026-04-27 06:04 -6.11578 106.65932 46 ft 21 kts 247°
2026-04-27 06:04 -6.11621 106.65878 46 ft 10 kts 169°
2026-04-27 06:04 -6.11680 106.65901 46 ft 2 kts 158°
2026-04-27 06:05 -6.11687 106.65904 46 ft 0 kts 158°